Location: Beneden-Haastrecht
(52.0012°N, 4.7557°E)
Time: 14:34:19
(UTC+00:00)

SJ 16-02 - Pass Details

Date: 24 October 2020
Orbit: 605 x 617 km, 75.0° (Epoch: 29 November)

Event Time Altitude Azimuth Distance (km) Brightness Sun altitude
Rises 20:31:31 0° 337° (NNW) 2,896 5.5 -37.1°
Reaches altitude 10° 20:33:47 10° 340° (NNW) 1,988 4.5 -37.4°
Enters shadow 20:33:50 10° 340° (NNW) 1,967 4.4 -37.4°
